Погода в Кхулне

Бангладеш     22°50′11″N   89°32′10″E
темп.,
°C
ветер,
м/с
пор.,
м/с
влажн.,
%
обл.,
%
осадки,
мм/ч
давл.,
гПа
погр.,
м
29 января, сб
сб2900:00+14ссз22480 0.0 101612
03:00+13сз23550 0.0 101530
06:00+12сз22642 0.0 101528
09:00+17ссз45521 0.0 1017489
12:00+22ссз55290 0.0 10151616
15:00+23ссз45260 0.0 10121888
18:00+19ссз33350 0.0 101224
21:00+17ссз22440 0.0 101415
30 января, вс
вс3000:00+15ссз22490 0.0 101311
03:00+14ссз23530 0.0 101124
06:00+13сз22580 0.0 101215
09:00+18зсз34390 0.0 1014368
12:00+23зсз45290 0.0 10121467
15:00+25зсз56260 0.0 10091829
18:00+20зсз33350 0.0 101028
21:00+18сз22410 0.0 101214
31 января, пн
пн3100:00+16с12480 0.0 101111
03:00+15сз11540 0.0 101011
06:00+14сз11570 0.0 101110
09:00+20зсз11420 0.0 1013257
12:00+25з34280 0.0 10121571
15:00+26з45230 0.0 10092192
18:00+22зсз33310 0.0 100920
21:00+19ююз22400 0.0 101222
1 февраля, вт
вт100:00+17ю12680 0.0 101113
03:00+16зюз11730 0.0 101011
06:00+15з11710 0.0 101011
09:00+21юз22530 0.0 1012311
12:00+26зюз35360 0.0 10101823
15:00+29з47303 0.0 10072967
18:00+24сз22393 0.0 100737
21:00+20юз23565 0.0 101127
2 февраля, ср
ср200:00+19юз22540 0.0 101012
03:00+17ссз33620 0.0 101039
06:00+16с22490 0.0 101111
09:00+21с34380 0.0 1013347
12:00+26ссз33270 0.0 10121726
15:00+28зсз45220 0.0 10092424
18:00+23зсз46280 0.0 101082
21:00+19ссз35360 0.0 101270